Погода в Тушне

Россия / Ульяновская область     54°01′21″N   48°31′09″E
темп.,
°C
ветер,
м/с
пор.,
м/с
влажн.,
%
обл.,
%
осадки,
мм/ч
давл.,
гПа
погр.,
м
23 октября, сб
сб2301:00+10зюз714780 0.0 1007655
04:00+9юз613824 0.0 1008480
07:00+7юз613830 0.0 1008417
10:00+9зюз512696 0.0 1010700
13:00+12зюз713485 0.0 10111640
16:00+11зюз6124489 0.0 10111484
19:00+9ююз395599 0.0 1012221
22:00+9юз51154100 0.0 1012426
24 октября, вс
вс2401:00+7юз5882100 0.8 1011403
04:00+6зсз4688100 3.6 1011751
07:00+5зюз49937 0.1 1011411
10:00+6з510784 0.1 1012691
13:00+8з696031 0.0 10121258
16:00+7з6962100 0.0 10131348
19:00+6з5858100 0.0 10141362
22:00+6зюз486989 0.0 1014764
25 октября, пн
пн2501:00+5юз497381 0.1 1013517
04:00+3зюз4887100 0.1 1013611
07:00+2з4898100 0.3 1014441
10:00+2сз61094100 1.0 1016879
13:00+2ссз81182100 0.4 10191015
16:00+3ссз7115515 0.5 10221292
19:00+1ссз610602 0.0 1025554
22:00−1сз377295 0.0 1027252
26 октября, вт
вт2601:00−1зсз3871100 0.0 1028268
04:00−1зюз4107119 0.0 1028329
07:00−1зюз6136945 0.0 1027402
10:00+1зюз7145678 0.0 1026556
13:00+5зюз813485 0.0 1024849
16:00+5зюз8135282 0.0 1023853
19:00+3зюз7155947 0.0 1023628
22:00+2зюз715635 0.0 1023518
27 октября, ср
ср2701:00+2зюз7156557 0.0 1023453
04:00+2зюз7156393 0.0 1022449
07:00+2зюз61562100 0.0 1022438
10:00+4зюз715558 0.0 1022504
13:00+7зюз71344100 0.0 1020695
16:00+7зюз7144137 0.0 1019761
19:00+5юз8164351 0.0 1019600
22:00+4юз71644100 0.0 1018627